This is the latest recevied weather packets stored in our database for station/object KR0L-13. If no packets are shown the sender has not sent any weather packets the latest 10 day(s).
| Time | Temp. | Humidity | Pressure | Rain* | Wind** | Luminosity | Snow |
|---|---|---|---|---|---|---|---|
| 1777556421 | 10° C | 85% | 1020.9 hPa | 0 mm | - | - | - |
| 1777555821 | 9.44° C | 86% | 1020.8 hPa | 0 mm | - | - | - |
| 1777555221 | 8.89° C | 87% | 1020.5 hPa | 0 mm | - | - | - |
| 1777554621 | 8.89° C | 88% | 1020.5 hPa | 0 mm | - | - | - |
| 1777554021 | 8.33° C | 90% | 1020.4 hPa | 0 mm | - | - | - |
| 1777553421 | 7.78° C | 90% | 1020.3 hPa | 0 mm | - | - | - |
| 1777552821 | 7.78° C | 91% | 1020.2 hPa | 0 mm | - | - | - |
| 1777552221 | 7.22° C | 91% | 1020.1 hPa | 0 mm | - | - | - |
| 1777551621 | 7.22° C | 91% | 1020 hPa | 0 mm | - | - | - |
| 1777551020 | 6.67° C | 92% | 1019.8 hPa | 0 mm | - | - | - |
| 1777550421 | 6.67° C | 92% | 1019.4 hPa | 0 mm | - | - | - |
| 1777549820 | 6.11° C | 92% | 1019.3 hPa | 0 mm | - | - | - |
| 1777549220 | 5.56° C | 92% | 1019.4 hPa | 0 mm | - | - | - |
| 1777548621 | 5.56° C | 93% | 1019.3 hPa | 0 mm | - | - | - |
| 1777548020 | 5° C | 94% | 1019.1 hPa | 0 mm | - | - | - |
| 1777547420 | 4.44° C | 94% | 1019 hPa | 0 mm | - | - | - |
| 1777546820 | 3.89° C | 93% | 1018.9 hPa | 0 mm | - | - | - |
| 1777546220 | 3.89° C | 92% | 1018.9 hPa | 0 mm | - | - | - |
| 1777545620 | 3.89° C | 93% | 1018.9 hPa | 0 mm | - | - | - |
| 1777545020 | 3.89° C | 92% | 1018.8 hPa | 0 mm | - | - | - |
| 1777544420 | 3.89° C | 92% | 1018.9 hPa | 0 mm | - | - | - |
| 1777543820 | 3.89° C | 93% | 1018.8 hPa | 0 mm | - | - | - |
| 1777543220 | 3.33° C | 93% | 1018.9 hPa | 0 mm | - | - | - |
| 1777542620 | 3.33° C | 92% | 1018.9 hPa | 0 mm | - | - | - |
| 1777542020 | 3.89° C | 93% | 1018.9 hPa | 0 mm | - | - | - |
* Rain latest hour (hover to see other rain measurements)
** Current wind speed in m/s (hover to see current wind gust speed)